Погода в Петровске-Забайкальском

Россия / Забайкальский край     51°16′29″N   108°50′48″E
темп.,
°C
ветер,
м/с
пор.,
м/с
влажн.,
%
обл.,
%
осадки,
мм/ч
давл.,
гПа
погр.,
м
26 января, вт
вт2600:00−20зсз61391100 0.0 1028789
03:00−21з51394100 0.1 1029842
06:00−22зсз51494100 0.1 1029785
09:00−22зсз41495100 0.2 1030794
12:00−21зсз51291100 0.1 1029759
15:00−18зсз61085100 0.1 1028992
18:00−20з51191100 0.1 1030788
21:00−26з3119592 0.1 1032267
27 января, ср
ср2700:00−29з35970 0.0 1034128
03:00−31зюз239918 0.0 103544
06:00−31з2310083 0.0 103655
09:00−32з2310092 0.0 103750
12:00−27з3895100 0.0 1037350
15:00−25з4991100 0.1 1036685
18:00−25зсз41089100 0.1 1037835
21:00−30з259590 0.1 104092
28 января, чт
чт2800:00−33зюз22990 0.0 104021
03:00−33зюз22990 0.0 103919
06:00−33ююз128914 0.0 103719
09:00−32ю129252 0.0 103619
12:00−27ююз2586100 0.0 1032265
15:00−23зюз2586100 0.0 1028464
18:00−26з229693 0.0 102824
21:00−27зюз249996 0.0 1028114
29 января, пт
пт2900:00−24зюз249895 0.1 1026171
03:00−22юз259998 0.8 1023221
06:00−23з2399100 0.3 1020110
09:00−22з2498100 0.6 1018137
12:00−20з2597100 0.1 1016250
15:00−16з51287100 0.2 1016910
18:00−18з3995100 0.2 1018463
21:00−20зюз1199100 0.4 102120
30 января, сб
сб3000:00−20зюз0198100 0.0 102120
03:00−20ссз0198100 0.0 102120
06:00−20св1199100 0.1 102220
09:00−20ю1199100 0.4 102320
12:00−16з3993100 0.2 1022477
15:00−14з3988100 0.2 1020520
18:00−15з1293100 0.0 101921
21:00−16ююв0095100 0.1 101920